Location: Unspecified
(41.5516°N, 88.1098°W)
Time: 17:01:33
(UTC-05:00)

Resurs 1-4 Rocket - Visible Passes

Search period start: 29 July 2015 00:00
Search period end: 08 August 2015 00:00
Orbit: 800 x 815 km, 98.4° (Epoch: 28 July)

Date Brightness Start Highest point End Pass type
(mag) Time Alt. Az. Time Alt. Az. Time Alt. Az.
29 Jul 4.6 02:54:40 10° ENE 02:56:50 13° E 02:59:19 10° ESE visible
29 Jul 2.1 04:32:09 10° N 04:37:25 77° WNW 04:42:40 10° SSW visible
30 Jul 2.4 04:07:41 10° NNE 04:12:56 65° E 04:18:07 10° S visible
31 Jul 3.3 03:43:27 10° NNE 03:48:19 38° E 03:53:13 10° SSE visible
01 Aug 4.1 03:19:32 10° NE 03:23:36 23° E 03:27:48 10° SE visible
01 Aug 2.6 04:58:44 10° N 05:03:43 44° WNW 05:08:39 10° SW visible
02 Aug 4.6 02:56:20 10° ENE 02:58:46 14° E 03:01:30 10° ESE visible
02 Aug 2.1 04:34:03 10° N 04:39:18 73° WNW 04:44:32 10° SSW visible
03 Aug 2.3 04:09:33 10° NNE 04:14:49 68° E 04:19:47 11° S visible
04 Aug 3.2 03:45:18 10° NNE 03:50:13 40° E 03:54:56 11° SSE visible
05 Aug 4.0 03:21:20 10° NE 03:25:31 24° E 03:29:48 10° SSE visible
05 Aug 2.6 05:00:39 10° N 05:05:35 42° WNW 05:10:29 10° SW visible
06 Aug 4.5 02:58:01 10° ENE 03:00:41 14° E 03:03:37 10° ESE visible
06 Aug 2.1 04:35:57 10° N 04:41:11 70° WNW 04:46:17 11° SSW visible
07 Aug 2.3 04:11:26 10° NNE 04:16:41 72° E 04:21:25 13° S visible
